Location: *
(51.1248°S, 108.4023°W)
Time: 21:08:45
(UTC+00:00)

Cosmos 2369 Rocket - Pass Details

Date: 15 June 2021
Orbit: 828 x 853 km, 71.0° (Epoch: 04 August)

Event Time Altitude Azimuth Distance (km) Brightness Sun altitude
Exits shadow 12:33:11 56° 229° (SW) 1,002 2.2 -24.3°
Drops below altitude 10° 12:38:40 10° 155° (SSE) 2,477 4.8 -23.4°
Sets 12:41:11 0° 151° (SSE) 3,414 5.6 -23.0°
